Location: Carnières
(50.1682°N, 3.3474°E)
Time: 01:42:12
(UTC+00:00)

Cosmos 1300 - Pass Details

Date: 23 May 2024
Orbit: 465 x 468 km, 82.5° (Epoch: 16 June)

Event Time Altitude Azimuth Distance (km) Brightness Sun altitude
Rises 00:53:40 0° 342° (NNW) 2,518 7.1 -17.5°
Reaches altitude 10° 00:55:52 10° 333° (NNW) 1,635 5.9 -17.4°
Maximum altitude 00:59:06 33° 268° (W) 810 3.5 -17.2°
Enters shadow 00:59:37 31° 249° (WSW) 840 3.4 -17.2°
